EW8080 Weather Reports


Display with metric or nautical units.
time (UTC)temp
F
wind
direction
speed
MPH
gust
MPH
rain 1hr
in
rain 24hr
in
rain mn
in
humidity
%
barometer
mb
20260505011003 53 222 11.0 19.0 0.00 0.00 0.00 76 1012.3
20260505010003 54 226 9.0 24.0 0.00 0.00 0.00 74 1012.1
20260505005003 54 227 9.0 25.0 0.00 0.00 0.00 73 1012.1
20260505004003 54 237 8.0 25.0 0.00 0.00 0.00 72 1011.9
20260505003003 54 234 13.0 24.0 0.00 0.00 0.00 71 1011.5
20260505002003 54 237 13.0 23.0 0.00 0.00 0.00 70 1011.5
20260505001024 54 236 14.0 20.0 0.00 0.00 0.00 70 1011.2
20260505000024 55 230 10.0 25.0 0.00 0.00 0.00 70 1011.5
20260504235003 55 232 9.0 25.0 0.00 0.00 0.00 69 1011.1
20260504234024 55 229 13.0 25.0 0.00 0.00 0.00 69 1010.9
20260504233003 55 234 11.0 24.0 0.00 0.00 0.00 69 1010.9
20260504232003 56 241 12.0 25.0 0.00 0.00 0.00 68 1010.7
20260504231003 56 231 11.0 25.0 0.00 0.00 0.00 67 1010.8
20260504230024 57 224 13.0 25.0 0.00 0.00 0.00 65 1010.7
20260504225003 57 223 13.0 20.0 0.00 0.00 0.00 64 1010.5
20260504224003 58 224 14.0 20.0 0.00 0.00 0.00 63 1010.6
20260504223003 58 225 13.0 20.0 0.00 0.00 0.00 61 1010.4
20260504222003 59 224 9.0 23.0 0.00 0.00 0.00 61 1010.3
20260504221003 59 226 13.0 31.0 0.00 0.00 0.00 59 1010.5
20260504220003 60 229 16.0 31.0 0.00 0.00 0.00 58 1010.3
20260504215003 60 217 13.0 24.0 0.00 0.00 0.00 57 1010.5
20260504214003 61 225 12.0 26.0 0.00 0.00 0.00 57 1010.5
20260504213024 61 234 14.0 26.0 0.00 0.00 0.00 55 1010.2
20260504212003 62 224 12.0 25.0 0.00 0.00 0.00 56 1010.3
20260504211003 62 212 11.0 27.0 0.00 0.00 0.00 56 1010.2
20260504210003 63 217 16.0 28.0 0.00 0.00 0.00 53 1010.2
20260504205003 63 240 15.0 28.0 0.00 0.00 0.00 52 1010.2
20260504204003 64 230 11.0 22.0 0.00 0.00 0.00 51 1010.1
20260504203003 64 223 9.0 31.0 0.00 0.00 0.00 52 1010.0
20260504202024 64 213 15.0 31.0 0.00 0.00 0.00 50 1010.1
20260504201003 66 223 17.0 31.0 0.00 0.00 0.00 45 1010.1
20260504200003 66 229 12.0 27.0 0.00 0.00 0.00 44 1010.1
20260504195003 66 238 20.0 27.0 0.00 0.00 0.00 41 1010.1
20260504194003 66 215 17.0 35.0 0.00 0.00 0.00 43 1010.3
20260504193003 67 226 15.0 35.0 0.00 0.00 0.00 44 1010.1
20260504192003 68 222 17.0 29.0 0.00 0.00 0.00 42 1010.1
20260504191003 68 232 12.0 33.0 0.00 0.00 0.00 42 1010.2
20260504190024 68 233 15.0 33.0 0.00 0.00 0.00 41 1010.3
20260504185024 68 223 16.0 32.0 0.00 0.00 0.00 43 1010.1
20260504184003 68 222 16.0 32.0 0.00 0.00 0.00 45 1010.3
20260504183003 68 217 15.0 27.0 0.00 0.00 0.00 47 1010.4
20260504182003 68 218 14.0 27.0 0.00 0.00 0.00 48 1010.2
20260504181003 68 223 14.0 25.0 0.00 0.00 0.00 48 1010.2
20260504180003 68 220 13.0 26.0 0.00 0.00 0.00 48 1010.1
20260504175003 68 229 12.0 26.0 0.00 0.00 0.00 46 1010.2
20260504174003 68 211 18.0 26.0 0.00 0.00 0.00 43 1010.1
20260504173003 69 206 17.0 23.0 0.00 0.00 0.00 44 1010.2
20260504172024 69 233 14.0 25.0 0.00 0.00 0.00 41 1010.4
20260504171003 70 231 17.0 33.0 0.00 0.00 0.00 37 1010.4
20260504151024 69 208 13.0 22.0 0.00 0.00 0.00 49 1011.2
20260504141003 70 218 12.0 23.0 0.00 0.00 0.00 38 1011.6
20260504082003 45 219 3.0 5.0 0.00 0.01 0.00 70 1011.6
20260504081003 45 215 4.0 6.0 0.00 0.01 0.00 70 1011.6
20260504050003 42 235 6.0 6.0 0.00 0.07 0.00 65 1011.3
20260504045024 42 228 5.0 8.0 0.00 0.07 0.00 64 1011.3
20260504044003 42 226 4.0 8.0 0.00 0.08 0.00 64 1011.3
20260504043003 42 224 6.0 7.0 0.00 0.08 0.00 64 1011.4
20260504042024 42 235 5.0 7.0 0.00 0.08 0.00 64 1011.2
20260504041003 42 236 5.0 7.0 0.00 0.08 0.00 63 1011.3
20260504040004 43 237 4.0 6.0 0.00 0.09 0.00 62 1011.0
20260504035003 43 203 5.0 6.0 0.00 0.09 0.09 61 1011.1
20260504034003 44 209 5.0 6.0 0.00 0.10 0.09 60 1011.1
20260504033003 44 221 4.0 6.0 0.00 0.11 0.09 60 1011.0
20260504032003 44 209 4.0 6.0 0.00 0.12 0.09 60 1010.8
20260504031003 44 210 4.0 6.0 0.00 0.13 0.09 59 1010.7
20260504030003 44 207 4.0 6.0 0.00 0.13 0.09 59 1010.9
20260504025003 44 188 4.0 6.0 0.00 0.14 0.09 58 1010.9
20260504024024 45 198 4.0 6.0 0.00 0.14 0.09 58 1010.8
20260504023003 45 202 3.0 5.0 0.00 0.15 0.09 57 1010.8
20260504022003 45 192 3.0 5.0 0.00 0.15 0.09 56 1010.9
20260504021003 46 214 3.0 5.0 0.00 0.16 0.09 57 1010.7
20260504020003 46 186 4.0 5.0 0.00 0.17 0.09 57 1010.7
20260504015004 47 196 3.0 5.0 0.00 0.18 0.09 55 1010.6
20260504014003 47 200 2.0 6.0 0.00 0.20 0.09 55 1010.5
20260504013024 47 180 3.0 6.0 0.00 0.22 0.09 53 1010.5
20260504012003 48 206 4.0 6.0 0.00 0.23 0.09 52 1010.4